[[{"header":{"parameterUnit":"m.s-1","parameterCategory":1,"la1":30.2991,"la2":30.254,"lo1":-89.0895,"lo2":-89.0444,"dy":0.0017,"dx":0.0017,"nx":28,"ny":28,"refTime":"2025-03-23T09:00:00:Z","depth":0,"parameterNumber":2,"parameterNumberName":"U-component_of_WINDS"},"data":[0,0,0,0,0,0,0,0,0,0,0,0,0,0,0,0,0,0,0,0,0,0,0,0,0,0,0,0,0,0,0,0,0,0,0,0,0,0,0,0,0,0,0,0,0,0,0,0,0,0,0,0,0,0,0,0,0,0,-0.1349,-0.1348,0,-0.1277,-0.1276,-0.1275,-0.1248,-0.1248,-0.1248,-0.1248,-0.1174,-0.1172,-0.117,0,0,0,0,0,0,0,0,0,0,0,0,0,-0.1463,-0.1461,-0.1349,-0.1348,-0.1347,-0.1277,-0.1276,-0.1275,-0.1248,-0.1248,-0.1248,-0.1248,-0.1175,-0.1172,-0.117,0,0,0,0,0,0,0,0,0,0,0,0,0,-0.1405,-0.1461,-0.1349,-0.1325,-0.1322,-0.1277,-0.1276,-0.1275,-0.1248,-0.1248,-0.1248,-0.1249,-0.1176,-0.1172,-0.1169,-0.1143,0,0,-0.1159,-0.1158,0,0,0,0,0,0,0,0,-0.1408,-0.1401,-0.133,-0.1327,-0.1324,-0.1272,-0.1289,-0.1231,-0.1248,-0.1276,-0.1248,-0.1249,-0.1206,-0.12,-0.1186,-0.1139,-0.1136,-0.1159,-0.1157,-0.1156,-0.1155,0,0,0,0,0,0,0,-0.1412,-0.1404,-0.1321,-0.1329,-0.1325,-0.1318,-0.131,-0.1278,-0.124,-0.1274,-0.1271,-0.1263,-0.1205,-0.1189,-0.1184,-0.1135,-0.1159,-0.1156,-0.1154,-0.1153,-0.1063,-0.1063,0,0,0,0,0,0,-0.142,-0.1407,-0.1323,-0.1318,-0.1367,-0.1316,-0.1307,-0.1288,-0.1241,-0.1234,-0.1263,-0.1262,-0.1195,-0.1188,-0.1182,-0.1148,-0.1156,-0.1153,-0.1151,-0.1064,-0.1063,-0.1063,0,0,0,0,0,0,-0.1423,-0.1413,-0.1326,-0.1362,-0.1351,-0.1313,-0.1293,-0.1286,-0.1271,-0.1233,-0.1226,-0.1254,-0.1195,-0.1186,-0.1153,-0.1145,-0.1151,-0.1148,-0.1064,-0.1063,-0.1063,-0.108,0,0,0,0,0,0,-0.1426,-0.1414,-0.1404,-0.1362,-0.1349,-0.1298,-0.1292,-0.1285,-0.1266,-0.1264,-0.1223,-0.1216,-0.1194,-0.1158,-0.115,-0.1141,-0.1146,-0.1065,-0.1064,-0.1063,-0.108,-0.108,-0.108,0,0,0,0,0,-0.143,-0.1411,-0.1403,-0.1393,-0.1335,-0.1298,-0.129,-0.1266,-0.1265,-0.1254,-0.123,-0.1217,-0.1147,-0.1155,-0.1145,-0.1135,-0.1065,-0.1064,-0.1063,-0.108,-0.108,-0.108,0,0,0,0,0,0,-0.1453,-0.1405,-0.1396,-0.1363,-0.1335,-0.1293,-0.1279,-0.1267,-0.1238,-0.1237,-0.1208,-0.1199,-0.1168,-0.1148,-0.1157,-0.1107,-0.1105,-0.1102,-0.1121,-0.1121,-0.1121,-0.1127,-0.1143,0,0,0,0,0,-0.1454,-0.1428,-0.1388,-0.1362,-0.1349,-0.1316,-0.1299,-0.1283,-0.1253,-0.124,-0.1213,-0.1184,-0.1155,-0.1137,-0.1108,-0.1077,-0.1068,-0.1065,-0.1065,-0.1066,-0.1064,-0.1046,-0.1044,-0.106,-0.106,-0.106,0,0,-0.1456,-0.1427,-0.1412,-0.1366,-0.1342,-0.1316,-0.1307,-0.1279,-0.1259,-0.1236,-0.1203,-0.1182,-0.1148,-0.1115,-0.11,-0.1098,-0.1057,-0.1064,-0.1065,-0.1063,-0.1045,-0.1043,-0.1042,-0.1059,-0.1059,-0.1059,0,0,-0.1446,-0.1421,-0.1398,-0.1374,-0.1338,-0.1317,-0.1311,-0.1272,-0.1257,-0.1223,-0.1206,-0.1182,-0.1133,-0.1109,-0.1091,-0.1072,-0.106,-0.1064,-0.1064,-0.1047,-0.1046,-0.1045,-0.1038,-0.1036,-0.1062,-0.1062,-0.1062,0,-0.1453,-0.1413,-0.1387,-0.1361,-0.1341,-0.1319,-0.1295,-0.1273,-0.123,-0.1217,-0.1216,-0.1154,-0.1129,-0.1091,-0.1087,-0.1072,-0.1065,-0.1068,-0.1048,-0.1047,-0.1045,-0.1039,-0.1037,-0.1063,-0.1062,-0.1062,-0.1062,0,-0.1423,-0.1396,-0.1381,-0.134,-0.1319,-0.1293,-0.1264,-0.1246,-0.1231,-0.121,-0.1176,-0.1146,-0.1111,-0.1101,-0.1086,-0.106,-0.106,-0.1054,-0.1051,-0.1045,-0.1038,-0.1036,-0.1064,-0.1063,-0.1063,-0.1063,0,0,-0.1426,-0.1371,-0.1366,-0.1347,-0.1306,-0.1284,-0.1258,-0.1224,-0.1209,-0.118,-0.1158,-0.1117,-0.1111,-0.109,-0.1072,-0.1058,-0.1045,-0.1053,-0.1051,-0.1053,-0.1016,-0.1021,-0.1019,-0.1037,-0.1036,-0.1036,-0.1019,0,-0.1411,-0.1363,-0.1339,-0.1302,-0.1277,-0.1255,-0.1233,-0.1205,-0.1185,-0.116,-0.1138,-0.1109,-0.1103,-0.1091,-0.1075,-0.105,-0.1038,-0.1051,-0.1016,-0.1015,-0.1025,-0.1015,-0.1021,-0.1006,-0.1016,-0.1015,-0.1015,0,-0.1387,-0.1358,-0.1319,-0.1281,-0.1269,-0.1249,-0.1216,-0.1193,-0.1161,-0.1148,-0.1125,-0.1108,-0.1079,-0.1079,-0.104,-0.105,-0.1034,-0.102,-0.1019,-0.1014,-0.1015,-0.1011,-0.1,-0.0998,-0.1011,-0.1011,-0.1012,0,-0.1393,-0.1344,-0.1314,-0.1299,-0.1254,-0.1241,-0.1221,-0.119,-0.1171,-0.1143,-0.113,-0.1098,-0.1081,-0.1057,-0.1032,-0.1034,-0.0995,-0.0993,-0.0983,-0.0984,-0.0976,-0.0977,-0.0963,-0.0966,-0.0966,-0.0966,-0.0966,0,-0.1379,-0.1356,-0.1317,-0.1298,-0.1272,-0.1245,-0.1219,-0.1198,-0.117,-0.1148,-0.1127,-0.1106,-0.1075,-0.105,-0.103,-0.1001,-0.0993,-0.0981,-0.0976,-0.0983,-0.0985,-0.0972,-0.0973,-0.0965,-0.0965,-0.0965,-0.0965,0,-0.1381,-0.1354,-0.132,-0.1281,-0.127,-0.1252,-0.1218,-0.12,-0.1179,-0.115,-0.1142,-0.1108,-0.1078,-0.1051,-0.101,-0.0997,-0.0967,-0.0961,-0.0978,-0.0976,-0.0968,-0.0969,-0.0945,-0.0941,-0.0947,-0.0947,-0.0947,0,-0.1374,-0.1356,-0.1314,-0.1298,-0.1279,-0.1252,-0.1233,-0.1206,-0.1186,-0.1149,-0.1135,-0.1104,-0.1077,-0.1029,-0.1001,-0.097,-0.0963,-0.0957,-0.0958,-0.0966,-0.0963,-0.0965,-0.0963,-0.0957,-0.0958,-0.0958,-0.0958,0,-0.1365,-0.1352,-0.1325,-0.1294,-0.1271,-0.1245,-0.1218,-0.1206,-0.1174,-0.1153,-0.1122,-0.1101,-0.106,-0.1029,-0.0995,-0.0975,-0.0961,-0.0958,-0.0954,-0.0961,-0.0971,-0.0966,-0.0979,-0.0958,-0.0958,-0.0958,-0.0958,-0.0958,-0.1362,-0.1345,-0.1313,-0.1284,-0.1261,-0.1236,-0.1217,-0.1193,-0.1167,-0.1132,-0.1117,-0.1086,-0.1055,-0.1008,-0.0988,-0.0963,-0.096,-0.0954,-0.0953,-0.0952,-0.0953,-0.0975,-0.0956,-0.0956,-0.0956,-0.0956,-0.0956,0,-0.1352,-0.133,-0.1304,-0.1267,-0.1244,-0.1233,-0.1203,-0.1184,-0.1157,-0.1129,-0.1103,-0.1068,-0.1037,-0.1007,-0.0975,-0.0961,-0.0954,-0.0953,-0.0954,-0.095,-0.0957,-0.0964,-0.096,-0.096,-0.096,-0.096,-0.096,-0.096,-0.1344,-0.1314,-0.1298,-0.1257,-0.1235,-0.1205,-0.1188,-0.1166,-0.1143,-0.1105,-0.1079,-0.106,-0.1031,-0.0997,-0.0969,-0.0961,-0.095,-0.0952,-0.0942,-0.0949,-0.0949,-0.0949,-0.0955,-0.0949,-0.0949,-0.0936,-0.0936,-0.0936]},{"header":{"parameterUnit":"m.s-1","parameterCategory":1,"la1":30.2991,"la2":30.254,"lo1":-89.0895,"lo2":-89.0444,"dy":0.0017,"dx":0.0017,"nx":28,"ny":28,"refTime":"2025-03-23T09:00:00:Z","depth":0,"parameterNumber":3,"parameterNumberName":"V-component_of_WINDS"},"data":[0,0,0,0,0,0,0,0,0,0,0,0,0,0,0,0,0,0,0,0,0,0,0,0,0,0,0,0,0,0,0,0,0,0,0,0,0,0,0,0,0,0,0,0,0,0,0,0,0,0,0,0,0,0,0,0,0,0,3.7111,3.7112,0,3.7216,3.7217,3.7218,3.7182,3.7179,3.7177,3.7175,3.728,3.7284,3.7289,0,0,0,0,0,0,0,0,0,0,0,0,0,3.6874,3.6879,3.711,3.7112,3.7113,3.7216,3.7217,3.7219,3.7182,3.7179,3.7176,3.7174,3.7278,3.7284,3.729,0,0,0,0,0,0,0,0,0,0,0,0,0,3.6978,3.688,3.711,3.7107,3.7108,3.7215,3.7217,3.7219,3.7183,3.7179,3.7176,3.7172,3.7276,3.7283,3.729,3.7406,0,0,3.7313,3.7316,0,0,0,0,0,0,0,0,3.6972,3.6987,3.7106,3.7108,3.7109,3.7182,3.7172,3.7281,3.7184,3.7154,3.7175,3.7171,3.725,3.7259,3.7286,3.7411,3.7415,3.7314,3.7318,3.7322,3.7324,0,0,0,0,0,0,0,3.6965,3.6982,3.7152,3.7108,3.711,3.71,3.7111,3.7193,3.722,3.7157,3.7154,3.7167,3.725,3.7279,3.7289,3.7417,3.7314,3.732,3.7325,3.7328,3.764,3.7644,0,0,0,0,0,0,3.6958,3.6976,3.7149,3.7155,3.7031,3.7107,3.7119,3.7162,3.7219,3.7225,3.717,3.7165,3.7268,3.728,3.7292,3.743,3.7321,3.7328,3.7333,3.7636,3.7641,3.7645,0,0,0,0,0,0,3.6953,3.6973,3.7144,3.7065,3.7086,3.7115,3.7163,3.7166,3.7196,3.723,3.7234,3.7196,3.7266,3.7282,3.7378,3.7433,3.7332,3.7338,3.7632,3.7638,3.7643,3.7708,0,0,0,0,0,0,3.6946,3.6972,3.7017,3.7066,3.7091,3.723,3.7167,3.7171,3.7209,3.7203,3.7255,3.726,3.7265,3.7367,3.7385,3.7442,3.7344,3.7627,3.7634,3.7641,3.7701,3.7715,3.7727,0,0,0,0,0,3.6938,3.703,3.7019,3.704,3.7147,3.7233,3.7246,3.7251,3.7214,3.7258,3.728,3.7258,3.7425,3.7377,3.7397,3.7457,3.7623,3.7632,3.7641,3.7695,3.7712,3.7727,0,0,0,0,0,0,3.6985,3.7037,3.7025,3.7136,3.7181,3.7227,3.7283,3.727,3.7325,3.7317,3.732,3.7331,3.743,3.7453,3.74,3.7571,3.7518,3.7531,3.7552,3.7569,3.7582,3.7574,3.735,0,0,0,0,0,3.7009,3.7075,3.7116,3.721,3.7233,3.7255,3.7292,3.7292,3.7337,3.7355,3.7384,3.7428,3.749,3.7531,3.759,3.7704,3.7714,3.7755,3.7768,3.7779,3.779,3.7851,3.7869,3.7674,3.7673,3.7673,0,0,3.7058,3.7094,3.7135,3.7221,3.7255,3.7322,3.727,3.7344,3.7393,3.7366,3.7459,3.7482,3.7531,3.7636,3.7684,3.7659,3.7846,3.779,3.7798,3.7803,3.7862,3.788,3.7897,3.7679,3.7678,3.7677,0,0,3.7181,3.7216,3.7298,3.7334,3.7387,3.74,3.742,3.7468,3.7483,3.7576,3.7557,3.7615,3.7723,3.7758,3.7791,3.7928,3.7909,3.7947,3.8016,3.8075,3.8091,3.8104,3.8152,3.817,3.7958,3.7958,3.7958,0,3.7235,3.7337,3.7341,3.7417,3.7454,3.7434,3.7517,3.7551,3.762,3.7646,3.7616,3.775,3.7782,3.7895,3.7929,3.7956,3.7978,3.7941,3.8088,3.8102,3.8115,3.8161,3.8179,3.7963,3.7962,3.7962,3.7961,0,3.74,3.7471,3.753,3.7599,3.7643,3.7722,3.7737,3.7781,3.7778,3.7794,3.7889,3.7927,3.7993,3.802,3.8016,3.8133,3.8115,3.8087,3.8034,3.8138,3.8181,3.8198,3.7969,3.7967,3.7966,3.7965,0,0,3.7555,3.7626,3.7647,3.7678,3.7735,3.7789,3.7866,3.7932,3.797,3.8018,3.8082,3.8174,3.8148,3.8185,3.8186,3.8238,3.8343,3.8204,3.8205,3.8227,3.8473,3.8492,3.8513,3.8332,3.8335,3.8338,3.8468,0,3.7682,3.7819,3.7826,3.7949,3.8014,3.7996,3.8063,3.8105,3.8123,3.8179,3.8198,3.8263,3.8225,3.8247,3.8298,3.832,3.8392,3.8311,3.839,3.8393,3.8378,3.8535,3.8557,3.8677,3.8485,3.8488,3.849,0,3.7849,3.7903,3.8034,3.8082,3.8109,3.817,3.823,3.8285,3.8332,3.8341,3.8382,3.8375,3.8453,3.8398,3.8505,3.8449,3.8482,3.8498,3.8503,3.8509,3.8447,3.8545,3.8716,3.8734,3.8517,3.8515,3.8513,0,3.7948,3.8054,3.8146,3.8172,3.8231,3.8273,3.8299,3.8343,3.8382,3.8435,3.846,3.8521,3.8554,3.86,3.861,3.8569,3.8717,3.8662,3.8725,3.8725,3.8756,3.8754,3.8934,3.8779,3.8779,3.8779,3.8778,0,3.8088,3.8169,3.8191,3.8247,3.8336,3.8343,3.8431,3.8454,3.8492,3.8552,3.854,3.8596,3.8605,3.8663,3.8671,3.8758,3.8773,3.8782,3.8783,3.8782,3.8781,3.8803,3.8795,3.8783,3.8782,3.8781,3.8781,0,3.8213,3.8232,3.833,3.8378,3.8391,3.8455,3.8495,3.8548,3.8565,3.864,3.8658,3.8684,3.8752,3.8766,3.8846,3.8851,3.8954,3.8947,3.8938,3.8937,3.8999,3.8993,3.9198,3.9225,3.9054,3.9056,3.9057,0,3.8302,3.8363,3.8417,3.8457,3.8485,3.8549,3.8589,3.8598,3.864,3.8698,3.8744,3.8811,3.8864,3.8973,3.8998,3.9059,3.9052,3.912,3.9061,3.9059,3.9052,3.9048,3.9054,3.9131,3.9133,3.9135,3.9136,0,3.8456,3.8462,3.8521,3.8583,3.8631,3.868,3.8727,3.876,3.8775,3.8822,3.8892,3.8933,3.9015,3.9081,3.9142,3.9168,3.9154,3.9155,3.9172,3.9172,3.9164,3.9168,3.8968,3.9149,3.9148,3.9147,3.9146,3.9146,3.8565,3.8618,3.8665,3.873,3.8767,3.8811,3.8863,3.8887,3.8945,3.9013,3.9015,3.909,3.9135,3.9216,3.9245,3.9304,3.9282,3.9308,3.9314,3.932,3.9325,3.9156,3.9315,3.9314,3.9314,3.9314,3.9313,0,3.8717,3.8747,3.8807,3.8873,3.8925,3.8909,3.896,3.9003,3.907,3.9114,3.9167,3.9247,3.931,3.9341,3.9404,3.9445,3.944,3.9461,3.9457,3.9463,3.9341,3.9319,3.9463,3.9463,3.9463,3.9463,3.9463,3.9463,3.8803,3.8893,3.8904,3.9011,3.904,3.9115,3.9145,3.9185,3.922,3.9309,3.9363,3.9382,3.942,3.9486,3.9544,3.9551,3.9574,3.9598,3.9602,3.9487,3.9472,3.9457,3.9437,3.9603,3.9603,3.9719,3.972,3.972]}]]